CFG4VP EDDF-LGKO

Flight info

Callsign CFG4VP
Flight time N/A
Altitude 37000
Route CINDY8S CINDY Z74 LAMPU DCT NOMBO Y161 MAH DCT VAVOR DCT RADIZ DCT GORPA DCT DEVUL DCT REMSO DCT MEDUX UM867 KOGAT DCT ERANA UL737 TSL UN130 MES UN139 LURUS L995 KOPAR
Aircraft A320/M-SDE3FGHIRWY/LB1

Departure

Time 2026-04-15 13:44
Airport Frankfurt Main Airport (EDDF)

Arrival

Time N/A
Airport Kos International Airport "Ippokratis" (LGKO)
Time Latitude Longitude Altitude Speed Heading
2026-04-15 13:15 50.05005 8.57428 363 ft 0 kts 72°
2026-04-15 13:16 50.05004 8.57428 363 ft 0 kts 74°
2026-04-15 13:30 50.05004 8.57429 356 ft 0 kts 76°
2026-04-15 13:30 50.04996 8.57437 385 ft 4 kts 144°
2026-04-15 13:30 50.04946 8.57494 359 ft 13 kts 125°
2026-04-15 13:30 50.04908 8.57619 361 ft 12 kts 115°
2026-04-15 13:31 50.04877 8.57729 359 ft 13 kts 113°
2026-04-15 13:31 50.04825 8.57883 366 ft 18 kts 138°
2026-04-15 13:31 50.04712 8.57893 363 ft 18 kts 223°
2026-04-15 13:31 50.04662 8.57708 362 ft 20 kts 249°
2026-04-15 13:32 50.04612 8.57498 363 ft 22 kts 250°
2026-04-15 13:32 50.04558 8.57269 360 ft 24 kts 249°
2026-04-15 13:32 50.04497 8.57015 361 ft 26 kts 250°
2026-04-15 13:32 50.04434 8.56754 361 ft 27 kts 250°
2026-04-15 13:33 50.04367 8.56470 361 ft 29 kts 249°
2026-04-15 13:33 50.04315 8.56254 356 ft 5 kts 249°
2026-04-15 13:33 50.04312 8.56241 361 ft 0 kts 249°
2026-04-15 13:34 50.04307 8.56232 359 ft 5 kts 232°
2026-04-15 13:34 50.04228 8.56247 357 ft 16 kts 160°
2026-04-15 13:34 50.04127 8.56258 359 ft 15 kts 225°
2026-04-15 13:34 50.04087 8.56110 356 ft 14 kts 250°
2026-04-15 13:35 50.04050 8.55958 354 ft 16 kts 250°
2026-04-15 13:35 50.03999 8.55742 349 ft 25 kts 249°
2026-04-15 13:35 50.03936 8.55481 358 ft 26 kts 249°
2026-04-15 13:35 50.03871 8.55208 356 ft 27 kts 250°
2026-04-15 13:36 50.03803 8.54922 354 ft 29 kts 249°
2026-04-15 13:36 50.03739 8.54656 349 ft 23 kts 250°
2026-04-15 13:36 50.03680 8.54409 344 ft 24 kts 248°
2026-04-15 13:36 50.03624 8.54174 342 ft 23 kts 250°
2026-04-15 13:37 50.03568 8.53938 341 ft 21 kts 250°
2026-04-15 13:37 50.03515 8.53714 336 ft 23 kts 249°
2026-04-15 13:37 50.03469 8.53524 335 ft 14 kts 249°
2026-04-15 13:37 50.03438 8.53398 337 ft 12 kts 249°
2026-04-15 13:38 50.03411 8.53286 336 ft 11 kts 249°
2026-04-15 13:38 50.03386 8.53181 335 ft 10 kts 250°
2026-04-15 13:38 50.03375 8.53135 332 ft 0 kts 249°
2026-04-15 13:38 50.03374 8.53130 332 ft 3 kts 249°
2026-04-15 13:39 50.03357 8.53057 333 ft 9 kts 249°
2026-04-15 13:39 50.03342 8.52995 333 ft 1 kts 249°
2026-04-15 13:39 50.03333 8.52959 331 ft 8 kts 249°
2026-04-15 13:40 50.03313 8.52874 333 ft 8 kts 250°
2026-04-15 13:40 50.03296 8.52802 333 ft 7 kts 250°
2026-04-15 13:40 50.03284 8.52751 331 ft 0 kts 249°
2026-04-15 13:41 50.03284 8.52750 331 ft 1 kts 249°
2026-04-15 13:42 50.03280 8.52735 332 ft 2 kts 249°
2026-04-15 13:42 50.03266 8.52680 334 ft 8 kts 248°
2026-04-15 13:42 50.03241 8.52603 333 ft 7 kts 221°
2026-04-15 13:42 50.03211 8.52595 335 ft 0 kts 180°
2026-04-15 13:43 50.03175 8.52595 335 ft 25 kts 180°
2026-04-15 13:44 50.02733 8.52601 335 ft 98 kts 179°
2026-04-15 13:44 50.01856 8.52609 334 ft 152 kts 179°
2026-04-15 13:44 50.00711 8.52618 743 ft 163 kts 180°
2026-04-15 13:44 49.99588 8.52617 1490 ft 161 kts 179°
2026-04-15 13:45 49.98403 8.52613 1928 ft 181 kts 179°
2026-04-15 13:45 49.97102 8.52975 2212 ft 202 kts 154°
2026-04-15 13:45 49.96003 8.54442 2601 ft 218 kts 122°
2026-04-15 13:47 49.92376 8.70260 7871 ft 238 kts 131°
2026-04-15 13:47 49.91307 8.72256 8629 ft 242 kts 131°
2026-04-15 13:47 49.90216 8.74275 9370 ft 246 kts 132°
2026-04-15 13:48 49.89103 8.76323 10132 ft 251 kts 132°
2026-04-15 13:48 49.87949 8.78448 10563 ft 269 kts 132°
2026-04-15 13:48 49.86692 8.80760 10831 ft 292 kts 131°
2026-04-15 13:48 49.85328 8.83265 11058 ft 316 kts 131°
2026-04-15 13:49 49.83859 8.85966 11284 ft 339 kts 131°
2026-04-15 13:49 49.82308 8.88819 11745 ft 351 kts 131°
2026-04-15 13:49 49.80729 8.91730 12420 ft 356 kts 131°
2026-04-15 13:49 49.79149 8.94640 13112 ft 360 kts 131°
2026-04-15 13:50 49.77527 8.97628 13808 ft 364 kts 131°
2026-04-15 13:50 49.75889 9.00643 14449 ft 368 kts 131°
2026-04-15 13:50 49.74232 9.03688 15070 ft 372 kts 131°
2026-04-15 13:50 49.72557 9.06759 15669 ft 376 kts 131°
2026-04-15 13:51 49.70861 9.09855 16291 ft 379 kts 131°
2026-04-15 13:51 49.69148 9.12974 16898 ft 383 kts 131°
2026-04-15 13:51 49.67415 9.16130 17489 ft 386 kts 131°
2026-04-15 13:51 49.65673 9.19307 18075 ft 390 kts 131°
2026-04-15 13:52 49.63914 9.22510 18627 ft 393 kts 131°
2026-04-15 13:52 49.62138 9.25736 19117 ft 396 kts 131°
2026-04-15 13:52 49.60341 9.28992 19604 ft 400 kts 131°
2026-04-15 13:52 49.58534 9.32263 20075 ft 403 kts 131°
2026-04-15 13:53 49.56704 9.35570 20551 ft 406 kts 131°
2026-04-15 13:53 49.54864 9.38894 21042 ft 410 kts 131°
2026-04-15 13:53 49.53007 9.42245 21503 ft 413 kts 131°
2026-04-15 13:53 49.51133 9.45624 21959 ft 416 kts 131°
2026-04-15 13:54 49.49251 9.49015 22425 ft 419 kts 131°
2026-04-15 13:54 49.47347 9.52446 22877 ft 423 kts 131°
2026-04-15 13:54 49.45432 9.55892 23313 ft 426 kts 131°
2026-04-15 13:54 49.43498 9.59361 23740 ft 429 kts 131°
2026-04-15 13:55 49.41544 9.62858 24107 ft 432 kts 131°
2026-04-15 13:55 49.39579 9.66369 24464 ft 435 kts 131°
2026-04-15 13:55 49.37599 9.69902 24819 ft 438 kts 131°
2026-04-15 13:55 49.35606 9.73456 25152 ft 441 kts 130°
2026-04-15 13:56 49.33602 9.77034 25501 ft 444 kts 130°
2026-04-15 13:56 49.31583 9.80640 25835 ft 446 kts 130°
2026-04-15 13:56 49.29550 9.84263 26178 ft 449 kts 130°
2026-04-15 13:56 49.27533 9.87846 26510 ft 451 kts 130°
2026-04-15 13:57 49.25473 9.91489 26836 ft 454 kts 130°
2026-04-15 13:57 49.23393 9.95158 27161 ft 457 kts 130°
2026-04-15 13:57 49.21305 9.98843 27482 ft 460 kts 130°
2026-04-15 13:57 49.19207 10.02543 27803 ft 462 kts 130°
2026-04-15 13:58 49.17088 10.06272 28107 ft 465 kts 130°
2026-04-15 13:58 49.14959 10.10014 28414 ft 468 kts 130°
2026-04-15 13:58 49.12818 10.13773 28714 ft 470 kts 129°
2026-04-15 13:58 49.10661 10.17558 29005 ft 473 kts 129°
2026-04-15 13:59 49.08496 10.21354 29300 ft 476 kts 129°
2026-04-15 13:59 49.06318 10.25168 29557 ft 478 kts 129°
2026-04-15 13:59 49.04127 10.28998 29851 ft 480 kts 129°
2026-04-15 13:59 49.01926 10.32844 30120 ft 483 kts 129°
2026-04-15 14:00 48.99706 10.36712 30367 ft 485 kts 129°
2026-04-15 14:00 48.97479 10.40586 30637 ft 486 kts 129°
2026-04-15 14:00 48.95253 10.44452 30974 ft 485 kts 129°
2026-04-15 14:00 48.93028 10.48311 31300 ft 485 kts 129°
2026-04-15 14:01 48.88609 10.55952 31944 ft 484 kts 129°
2026-04-15 14:01 48.86385 10.59786 32286 ft 484 kts 128°
2026-04-15 14:01 48.84130 10.63669 32596 ft 483 kts 128°
2026-04-15 14:02 48.81907 10.67494 32912 ft 483 kts 128°
2026-04-15 14:02 48.79684 10.71315 33218 ft 483 kts 128°
2026-04-15 14:02 48.77459 10.75135 33548 ft 482 kts 127°
2026-04-15 14:02 48.75247 10.78935 33868 ft 482 kts 127°
2026-04-15 14:03 48.73059 10.82684 34183 ft 481 kts 127°
2026-04-15 14:03 48.70838 10.86477 34454 ft 481 kts 127°
2026-04-15 14:03 48.68618 10.90261 34745 ft 480 kts 128°
2026-04-15 14:03 48.66402 10.94032 35042 ft 479 kts 127°
2026-04-15 14:04 48.64186 10.97802 35327 ft 478 kts 127°
2026-04-15 14:04 48.61982 11.01549 35601 ft 477 kts 127°
2026-04-15 14:04 48.59774 11.05300 35871 ft 477 kts 127°
2026-04-15 14:04 48.57574 11.09027 36122 ft 476 kts 127°
2026-04-15 14:05 48.55366 11.12759 36361 ft 475 kts 128°
2026-04-15 14:05 48.53164 11.16470 36595 ft 475 kts 128°
2026-04-15 14:05 48.51704 11.18930 36763 ft 474 kts 127°
2026-04-15 14:05 48.49508 11.22632 37004 ft 473 kts 128°
2026-04-15 14:06 48.47312 11.26331 37168 ft 473 kts 128°
2026-04-15 14:06 48.42912 11.33730 37207 ft 473 kts 127°
2026-04-15 14:07 48.38518 11.41084 37215 ft 472 kts 128°
2026-04-15 14:07 48.34121 11.48413 37215 ft 473 kts 128°
2026-04-15 14:08 48.29713 11.55752 37214 ft 472 kts 128°
2026-04-15 14:08 48.25306 11.63078 37219 ft 473 kts 128°
2026-04-15 14:09 48.20895 11.70382 37241 ft 472 kts 128°
2026-04-15 14:09 48.16485 11.77667 37236 ft 471 kts 128°
2026-04-15 14:10 48.12078 11.84941 37228 ft 471 kts 128°
2026-04-15 14:10 48.07670 11.92186 37222 ft 471 kts 128°
2026-04-15 14:11 48.03257 11.99410 37241 ft 471 kts 128°
2026-04-15 14:11 47.98841 12.06623 37231 ft 470 kts 128°
2026-04-15 14:12 47.94425 12.13803 37230 ft 469 kts 129°
2026-04-15 14:12 47.89541 12.20319 37225 ft 472 kts 136°
2026-04-15 14:13 47.84514 12.26612 37223 ft 472 kts 136°
2026-04-15 14:13 47.79488 12.32905 37216 ft 472 kts 136°
2026-04-15 14:14 47.74455 12.39185 37209 ft 472 kts 136°
2026-04-15 14:14 47.69430 12.45438 37207 ft 472 kts 136°
2026-04-15 14:15 47.64422 12.51636 37204 ft 471 kts 136°
2026-04-15 14:15 47.59777 12.58400 37193 ft 466 kts 128°
2026-04-15 14:16 47.55369 12.65458 37217 ft 467 kts 129°
2026-04-15 14:16 47.50957 12.72510 37195 ft 467 kts 129°
2026-04-15 14:17 47.46525 12.79547 37179 ft 467 kts 129°
2026-04-15 14:17 47.42097 12.86566 37181 ft 468 kts 129°
2026-04-15 14:18 47.37655 12.93583 37171 ft 468 kts 129°
2026-04-15 14:18 47.33205 13.00589 37186 ft 468 kts 129°
2026-04-15 14:19 47.28751 13.07587 37175 ft 468 kts 129°
2026-04-15 14:19 47.24292 13.14591 37173 ft 468 kts 129°
2026-04-15 14:20 47.19832 13.21563 37181 ft 468 kts 129°
2026-04-15 14:20 47.15367 13.28521 37180 ft 467 kts 129°
2026-04-15 14:21 47.10913 13.35457 37211 ft 466 kts 130°
2026-04-15 14:21 47.06462 13.42377 37203 ft 466 kts 130°
2026-04-15 14:22 47.02027 13.49228 37209 ft 466 kts 130°